Lid_Strength_Index
-0 -1 -1 -1 -1 -1 -1 -1 -1 0 1 0 -0 -1 -1 -1 -1 -1 -1 -1 -1 -1 -1 -1 -1 -1 0 5 5 -0 -0 -1 0 1 3 4 6 7 9 8 7 9 8 7 6 6 7
0 0 -1 -1 -1 -1 -1 -1 -0 -0 -0 -0 0 -0 -1 -1 -1 -1 -1 -1 -1 -1 -1 -1 -1 -1 3 8 0 -1 -0 0 1 2 3 4 5 5 8 8 9 8 8 7 7 7 7
1 1 0 -0 -1 -1 -1 -1 -1 -1 -0 -1 -0 -0 -1 -1 -1 -1 -1 -1 -1 -2 -2 -2 -2 0 4 6 1 0 -0 1 1 1 4 3 4 6 7 9 6 7 10 9 8 7 8
1 1 0 0 -0 -1 -1 -1 -1 -1 -1 -1 -1 -0 -1 -1 -1 -1 -1 -1 -1 -1 -2 -2 -2 2 7 1 1 1 0 1 0 0 2 2 2 5 7 7 8 11 11 15 9 8 7
1 0 1 0 -0 -0 -1 -1 -1 -1 -1 -1 -1 -1 -1 -1 -1 -1 -1 -1 -1 -1 -2 -2 2 4 8 1 3 1 1 3 2 2 2 1 3 7 7 10 13 13 16 14 12 8 8
-1 -0 1 0 0 -0 0 -1 -1 -1 -1 -1 -1 -1 -1 -1 -1 -1 -1 -1 -1 -1 -1 -0 2 6 5 6 3 2 1 1 4 4 5 6 7 10 10 12 17 15 15 13 13 10 9
-2 -2 0 0 -0 0 -0 -1 -1 -1 -1 -1 -1 -1 -1 -1 -1 -2 -0 1 4 5 3 6 7 6 5 3 2 3 2 3 4 6 10 8 11 13 12 10 10 12 13 14 11 9 10
-2 -2 -2 -1 -1 -1 -0 -0 -1 -1 -1 -1 -1 -1 -1 -1 -1 -2 0 4 4 3 8 4 4 4 4 3 6 4 2 7 8 11 9 10 13 10 9 9 11 12 13 14 11 9 10
-1 -2 -2 -2 -2 -1 -1 -0 1 -1 -1 -1 -1 -1 -1 -1 -1 -0 2 3 0 2 8 7 5 5 5 4 7 6 4 6 9 11 10 12 11 8 10 11 13 12 13 13 13 11 10
-1 -1 -1 -1 -1 -1 -1 -1 0 -1 -1 -1 -1 -1 -1 -1 1 2 4 1 -0 1 12 11 8 6 5 4 8 3 3 6 9 11 11 11 8 10 11 12 11 15 11 11 12 14 17
-0 -1 -1 -1 -1 -1 -1 -1 1 -1 -1 -1 -1 -1 -1 -1 2 4 2 0 0 3 20 10 8 2 4 7 7 6 3 6 10 10 10 12 11 11 12 11 10 13 10 11 12 14 14
-0 -0 -1 -1 -1 -1 -1 -1 -1 -1 -1 -1 -1 -1 -1 0 2 2 0 0 2 13 19 13 8 9 9 8 8 6 7 5 6 10 10 10 7 9 10 9 9 9 12 12 13 14 19
-1 -1 -1 -1 -1 -1 -1 -1 -1 -1 -1 -1 -1 -1 -0 0 4 1 0 4 14 18 10 13 12 10 10 11 9 9 10 11 12 15 14 12 11 9 8 11 10 11 14 18 20 20 20
-0 -0 -0 -1 -1 -1 -1 -1 -1 -1 -1 -1 -1 -1 -0 0 1 0 2 10 17 14 13 10 10 10 12 10 10 10 11 12 9 11 13 15 17 11 8 10 12 12 13 17 22 21 19
0 -0 -0 -1 -1 -1 -1 -1 -1 -1 -1 -1 -1 1 2 1 -0 1 7 15 15 15 11 12 11 13 13 11 11 11 11 12 10 10 14 15 15 9 8 8 9 13 15 11 16 15 19
0 -0 0 -1 -1 -1 -1 -1 -1 -1 -1 -1 2 3 3 -0 -0 3 10 13 13 9 9 10 14 12 15 13 13 12 12 10 11 8 9 12 15 10 9 8 9 10 10 16 15 22 22
-0 -0 -0 -0 -0 -1 -1 -1 -0 -0 -1 -1 3 7 3 -0 1 7 13 12 11 8 8 10 12 13 13 13 12 13 13 10 8 9 8 10 12 13 10 12 13 13 14 13 13 16 20
-0 -0 -0 -0 -0 -0 -0 -1 -0 -1 -1 1 5 10 2 1 9 9 12 10 8 9 7 9 9 11 12 12 12 12 13 10 7 8 11 9 12 16 13 10 9 9 12 12 17 18 16
-0 -0 -0 -0 -0 -0 -0 -1 -0 -1 -1 4 8 7 2 3 12 12 10 10 9 9 9 10 10 9 9 11 13 11 10 8 7 8 10 9 13 20 17 12 11 12 11 11 11 13 16
0 0 -0 -0 -0 -0 -0 -0 -0 -1 -1 5 8 13 7 6 7 11 11 12 11 8 9 8 9 9 10 11 10 12 11 8 8 7 7 7 12 14 17 15 12 14 13 12 13 16 16
0 0 0 0 -0 -0 -0 -0 -0 -0 -1 5 8 10 9 11 10 9 10 10 11 12 8 8 10 9 10 13 12 12 10 10 9 7 8 9 15 13 13 11 12 12 12 12 14 13 16
0 0 0 0 -0 -0 -0 -0 -0 -0 -1 5 8 8 8 9 9 9 10 11 11 11 10 11 11 9 9 12 10 12 10 10 10 9 9 9 14 13 16 12 12 13 12 12 12 12 13
0 0 0 -0 -0 -0 -0 -0 -0 -0 -0 5 4 4 6 8 11 11 11 11 10 9 9 8 9 9 10 9 8 7 7 7 8 9 11 11 13 15 21 13 13 18 14 12 11 10 11
0 0 -0 -0 -0 -0 -0 -0 -0 -0 -0 4 5 5 8 11 10 10 9 9 10 9 10 8 7 10 8 6 6 8 10 10 9 9 8 13 13 14 20 19 21 14 11 11 11 10 10
-0 -0 -0 -0 -0 -0 -0 -0 -0 -0 -1 3 4 6 7 11 9 9 9 9 8 8 9 10 9 8 6 7 11 14 16 15 15 12 10 9 12 15 17 23 18 15 13 13 14 14 13
-0 -0 -0 -0 -0 -0 -0 -0 -0 -0 -1 4 6 4 6 9 10 8 9 9 10 10 11 10 8 7 7 11 15 18 18 18 18 15 11 10 10 15 27 26 26 16 12 11 11 16 14
-0 -0 -0 -0 -0 -0 -0 -0 -0 -1 -1 4 6 4 5 9 9 8 9 10 9 11 12 12 11 11 9 14 17 19 21 16 20 20 19 20 21 18 27 27 20 14 11 9 18 16 16
1 1 0 -0 -0 -0 -0 -0 -0 -1 -0 4 7 4 6 10 10 9 9 11 10 11 11 11 11 12 13 15 16 17 21 17 19 16 16 18 20 23 25 26 22 14 12 12 17 17 17
2 2 1 1 1 0 0 -0 -0 -1 -0 2 7 5 5 9 9 7 8 7 8 9 10 11 12 13 11 14 15 16 20 20 20 21 13 17 15 17 16 17 16 17 18 18 17 18 18